Location: Fenton Hill Observtory
(35.8809°N, 106.6741°W)
Time: 04:07:11
(UTC-07:00)

OTV 5 (USA 277) - Visible Passes

Search period start: 19 December 2018 00:00
Search period end: 29 December 2018 00:00
Orbit: 340 x 348 km, 54.5° (Epoch: 17 December)

Date Brightness Start Highest point End Pass type
(mag) Time Alt. Az. Time Alt. Az. Time Alt. Az.
22 Dec ? 18:58:47 10° SSW 18:59:22 15° SSW 18:59:22 15° SSW visible
23 Dec ? 17:49:27 10° SSE 17:50:36 12° SE 17:51:19 11° ESE visible
23 Dec ? 19:22:34 10° WSW 19:22:47 12° WSW 19:22:47 12° WSW visible
24 Dec ? 18:11:13 10° SSW 18:14:01 47° SE 18:14:38 39° E visible
25 Dec ? 18:34:57 10° WSW 18:37:39 36° NW 18:37:53 35° NNW visible
26 Dec ? 17:23:40 10° SSW 17:26:26 44° SE 17:29:13 10° ENE visible
26 Dec ? 19:00:07 10° WNW 19:01:02 12° NW 19:01:02 12° NW visible
27 Dec ? 17:47:20 10° WSW 17:50:04 38° NW 17:52:41 11° NNE visible
28 Dec ? 18:12:24 10° WNW 18:13:56 13° NW 18:15:28 10° N visible
